User: anonymous   Login
Location: Sungai Laei
(2.6000°N, 113.7167°E)
Time: 19:39:09
(UTC+00:00)
Language:

Cosmos 2285 Rocket - Orbit

View from above orbital plane
View from above orbital plane
View from above satellite
View from above satellite

Ground track
Ground track

The orbit data is extracted from the following two-line orbital elements,

1 23190U 94045B   22230.20015711 -.00000077  00000-0 -58283-4 0  9999
2 23190  74.0266 213.7899 0018348 129.5500 230.7244 13.74129210406559
Epoch (UTC): 18 August 2022 04:48:13
Eccentricity: 0.0018348
inclination: 74.0266°
perigee height: 971 km
apogee height: 998 km
right ascension of ascending node: 213.7899°
argument of perigee: 129.5500°
revolutions per day: 13.74129210
mean anomaly at epoch: 230.7244°
orbit number at epoch: 40655

The dashed part of the orbit path shows where the satellite is in the earth's shadow,  

DLR